VZLUSAT-1

Last updated on Tue Jun 06 2023 00:03:44 GMT+0000 (Coordinated Universal Time)

1 42790U 17036AB 23156.37848612 .11042828 23637-5 11265-2 0 9994 2 42790 97.1160 205.2398 0014205 254.8731 105.0997 16.37657285331872

Satellite not in orbit